﻿測定場所 (Monitoring sites),日付 (Measurement date),時間 (Measurement time),線量率 最大値 (max) μGy/h,線量率 最小値 (min) μGy/h,線量率 平均値 (average) μGy/h,
足立 (Adachi),2013-01-13,23:01～24:00,0.0599,0.0532,0.0570,
足立 (Adachi),2013-01-13,22:01～23:00,0.0601,0.0535,0.0570,
足立 (Adachi),2013-01-13,21:01～22:00,0.0608,0.0543,0.0572,
足立 (Adachi),2013-01-13,20:01～21:00,0.0612,0.0533,0.0570,
足立 (Adachi),2013-01-13,19:01～20:00,0.0620,0.0519,0.0567,
足立 (Adachi),2013-01-13,18:01～19:00,0.0591,0.0534,0.0564,
足立 (Adachi),2013-01-13,17:01～18:00,0.0608,0.0532,0.0564,
足立 (Adachi),2013-01-13,16:01～17:00,0.0593,0.0519,0.0559,
足立 (Adachi),2013-01-13,15:01～16:00,0.0600,0.0528,0.0564,
足立 (Adachi),2013-01-13,14:01～15:00,0.0600,0.0539,0.0569,
足立 (Adachi),2013-01-13,13:01～14:00,0.0604,0.0541,0.0572,
足立 (Adachi),2013-01-13,12:01～13:00,0.0603,0.0536,0.0570,
足立 (Adachi),2013-01-13,11:01～12:00,0.0623,0.0547,0.0579,
足立 (Adachi),2013-01-13,10:01～11:00,0.0619,0.0566,0.0591,
足立 (Adachi),2013-01-13,09:01～10:00,0.0634,0.0569,0.0596,
足立 (Adachi),2013-01-13,08:01～09:00,0.0629,0.0550,0.0587,
足立 (Adachi),2013-01-13,07:01～08:00,0.0618,0.0542,0.0581,
足立 (Adachi),2013-01-13,06:01～07:00,0.0623,0.0546,0.0586,
足立 (Adachi),2013-01-13,05:01～06:00,0.0626,0.0543,0.0579,
足立 (Adachi),2013-01-13,04:01～05:00,0.0608,0.0553,0.0584,
足立 (Adachi),2013-01-13,03:01～04:00,0.0617,0.0551,0.0580,
足立 (Adachi),2013-01-13,02:01～03:00,0.0610,0.0544,0.0576,
足立 (Adachi),2013-01-13,01:01～02:00,0.0612,0.0540,0.0573,
足立 (Adachi),2013-01-13,00:01～01:00,0.0604,0.0526,0.0572,
足立 (Adachi),2013-01-12,23:01～24:00,0.0619,0.0551,0.0576,
足立 (Adachi),2013-01-12,22:01～23:00,0.0613,0.0538,0.0571,
足立 (Adachi),2013-01-12,21:01～22:00,0.0609,0.0547,0.0574,
足立 (Adachi),2013-01-12,20:01～21:00,0.0601,0.0528,0.0566,
足立 (Adachi),2013-01-12,19:01～20:00,0.0612,0.0543,0.0575,
足立 (Adachi),2013-01-12,18:01～19:00,0.0595,0.0531,0.0568,
足立 (Adachi),2013-01-12,17:01～18:00,0.0594,0.0510,0.0561,
足立 (Adachi),2013-01-12,16:01～17:00,0.0606,0.0529,0.0568,
足立 (Adachi),2013-01-12,15:01～16:00,0.0595,0.0543,0.0571,
足立 (Adachi),2013-01-12,14:01～15:00,0.0607,0.0522,0.0574,
足立 (Adachi),2013-01-12,13:01～14:00,0.0615,0.0540,0.0575,
足立 (Adachi),2013-01-12,12:01～13:00,0.0604,0.0531,0.0570,
足立 (Adachi),2013-01-12,11:01～12:00,0.0611,0.0547,0.0571,
足立 (Adachi),2013-01-12,10:01～11:00,0.0628,0.0526,0.0573,
足立 (Adachi),2013-01-12,09:01～10:00,0.0607,0.0539,0.0574,
足立 (Adachi),2013-01-12,08:01～09:00,0.0606,0.0532,0.0572,
足立 (Adachi),2013-01-12,07:01～08:00,0.0602,0.0541,0.0568,
足立 (Adachi),2013-01-12,06:01～07:00,0.0610,0.0533,0.0570,
足立 (Adachi),2013-01-12,05:01～06:00,0.0594,0.0533,0.0568,
足立 (Adachi),2013-01-12,04:01～05:00,0.0596,0.0535,0.0571,
足立 (Adachi),2013-01-12,03:01～04:00,0.0611,0.0536,0.0571,
足立 (Adachi),2013-01-12,02:01～03:00,0.0613,0.0530,0.0570,
足立 (Adachi),2013-01-12,01:01～02:00,0.0618,0.0535,0.0573,
足立 (Adachi),2013-01-12,00:01～01:00,0.0605,0.0530,0.0572,
足立 (Adachi),2013-01-11,23:01～24:00,0.0614,0.0529,0.0567,
足立 (Adachi),2013-01-11,22:01～23:00,0.0592,0.0529,0.0562,
足立 (Adachi),2013-01-11,21:01～22:00,0.0595,0.0533,0.0566,
足立 (Adachi),2013-01-11,20:01～21:00,0.0585,0.0529,0.0561,
足立 (Adachi),2013-01-11,19:01～20:00,0.0595,0.0529,0.0561,
足立 (Adachi),2013-01-11,18:01～19:00,0.0595,0.0525,0.0559,
足立 (Adachi),2013-01-11,17:01～18:00,0.0584,0.0524,0.0557,
足立 (Adachi),2013-01-11,16:01～17:00,0.0597,0.0530,0.0558,
足立 (Adachi),2013-01-11,15:01～16:00,0.0609,0.0519,0.0560,
足立 (Adachi),2013-01-11,14:01～15:00,0.0600,0.0527,0.0561,
足立 (Adachi),2013-01-11,13:01～14:00,0.0601,0.0525,0.0562,
足立 (Adachi),2013-01-11,12:01～13:00,0.0590,0.0521,0.0561,
足立 (Adachi),2013-01-11,11:01～12:00,0.0594,0.0524,0.0560,
足立 (Adachi),2013-01-11,10:01～11:00,0.0590,0.0530,0.0561,
足立 (Adachi),2013-01-11,09:01～10:00,0.0589,0.0532,0.0560,
足立 (Adachi),2013-01-11,08:01～09:00,0.0603,0.0521,0.0560,
足立 (Adachi),2013-01-11,07:01～08:00,0.0581,0.0520,0.0547,
足立 (Adachi),2013-01-11,06:01～07:00,0.0590,0.0521,0.0556,
足立 (Adachi),2013-01-11,05:01～06:00,0.0606,0.0521,0.0559,
足立 (Adachi),2013-01-11,04:01～05:00,0.0601,0.0524,0.0562,
足立 (Adachi),2013-01-11,03:01～04:00,0.0600,0.0534,0.0565,
足立 (Adachi),2013-01-11,02:01～03:00,0.0599,0.0517,0.0563,
足立 (Adachi),2013-01-11,01:01～02:00,0.0595,0.0534,0.0565,
足立 (Adachi),2013-01-11,00:01～01:00,0.0602,0.0539,0.0566,
足立 (Adachi),2013-01-10,23:01～24:00,0.0589,0.0521,0.0560,
足立 (Adachi),2013-01-10,22:01～23:00,0.0602,0.0523,0.0564,
足立 (Adachi),2013-01-10,21:01～22:00,0.0609,0.0529,0.0562,
足立 (Adachi),2013-01-10,20:01～21:00,0.0601,0.0529,0.0561,
足立 (Adachi),2013-01-10,19:01～20:00,0.0586,0.0529,0.0560,
足立 (Adachi),2013-01-10,18:01～19:00,0.0581,0.0528,0.0555,
足立 (Adachi),2013-01-10,17:01～18:00,0.0594,0.0529,0.0561,
足立 (Adachi),2013-01-10,16:01～17:00,0.0589,0.0517,0.0559,
足立 (Adachi),2013-01-10,15:01～16:00,0.0593,0.0530,0.0562,
足立 (Adachi),2013-01-10,14:01～15:00,0.0597,0.0523,0.0564,
足立 (Adachi),2013-01-10,13:01～14:00,0.0601,0.0517,0.0556,
足立 (Adachi),2013-01-10,12:01～13:00,0.0595,0.0530,0.0558,
足立 (Adachi),2013-01-10,11:01～12:00,0.0587,0.0520,0.0555,
足立 (Adachi),2013-01-10,10:01～11:00,0.0592,0.0535,0.0564,
足立 (Adachi),2013-01-10,09:01～10:00,0.0606,0.0528,0.0561,
足立 (Adachi),2013-01-10,08:01～09:00,0.0575,0.0508,0.0547,
足立 (Adachi),2013-01-10,07:01～08:00,0.0602,0.0529,0.0556,
足立 (Adachi),2013-01-10,06:01～07:00,0.0608,0.0528,0.0562,
足立 (Adachi),2013-01-10,05:01～06:00,0.0612,0.0532,0.0559,
足立 (Adachi),2013-01-10,04:01～05:00,0.0604,0.0539,0.0569,
足立 (Adachi),2013-01-10,03:01～04:00,0.0595,0.0530,0.0567,
足立 (Adachi),2013-01-10,02:01～03:00,0.0598,0.0533,0.0568,
足立 (Adachi),2013-01-10,01:01～02:00,0.0602,0.0546,0.0575,
足立 (Adachi),2013-01-10,00:01～01:00,0.0613,0.0549,0.0577,
足立 (Adachi),2013-01-09,23:01～24:00,0.0602,0.0542,0.0571,
足立 (Adachi),2013-01-09,22:01～23:00,0.0606,0.0536,0.0566,
足立 (Adachi),2013-01-09,21:01～22:00,0.0603,0.0529,0.0562,
足立 (Adachi),2013-01-09,20:01～21:00,0.0596,0.0528,0.0559,
足立 (Adachi),2013-01-09,19:01～20:00,0.0601,0.0523,0.0563,
足立 (Adachi),2013-01-09,18:01～19:00,0.0605,0.0530,0.0565,
足立 (Adachi),2013-01-09,17:01～18:00,0.0589,0.0531,0.0561,
足立 (Adachi),2013-01-09,16:01～17:00,0.0625,0.0539,0.0564,
足立 (Adachi),2013-01-09,15:01～16:00,0.0649,0.0528,0.0561,
足立 (Adachi),2013-01-09,14:01～15:00,0.0600,0.0531,0.0564,
足立 (Adachi),2013-01-09,13:01～14:00,0.0595,0.0528,0.0562,
足立 (Adachi),2013-01-09,12:01～13:00,0.0595,0.0517,0.0557,
足立 (Adachi),2013-01-09,11:01～12:00,0.0603,0.0529,0.0565,
足立 (Adachi),2013-01-09,10:01～11:00,0.0609,0.0525,0.0566,
足立 (Adachi),2013-01-09,09:01～10:00,0.0600,0.0532,0.0564,
足立 (Adachi),2013-01-09,08:01～09:00,0.0594,0.0528,0.0561,
足立 (Adachi),2013-01-09,07:01～08:00,0.0594,0.0520,0.0562,
足立 (Adachi),2013-01-09,06:01～07:00,0.0608,0.0513,0.0568,
足立 (Adachi),2013-01-09,05:01～06:00,0.0604,0.0542,0.0569,
足立 (Adachi),2013-01-09,04:01～05:00,0.0606,0.0539,0.0566,
足立 (Adachi),2013-01-09,03:01～04:00,0.0598,0.0533,0.0563,
足立 (Adachi),2013-01-09,02:01～03:00,0.0599,0.0539,0.0568,
足立 (Adachi),2013-01-09,01:01～02:00,0.0598,0.0530,0.0563,
足立 (Adachi),2013-01-09,00:01～01:00,0.0589,0.0538,0.0566,
足立 (Adachi),2013-01-08,23:01～24:00,0.0616,0.0540,0.0567,
足立 (Adachi),2013-01-08,22:01～23:00,0.0620,0.0530,0.0565,
足立 (Adachi),2013-01-08,21:01～22:00,0.0591,0.0531,0.0562,
足立 (Adachi),2013-01-08,20:01～21:00,0.0607,0.0536,0.0564,
足立 (Adachi),2013-01-08,19:01～20:00,0.0597,0.0522,0.0559,
足立 (Adachi),2013-01-08,18:01～19:00,0.0591,0.0517,0.0559,
足立 (Adachi),2013-01-08,17:01～18:00,0.0606,0.0527,0.0554,
足立 (Adachi),2013-01-08,16:01～17:00,0.0603,0.0532,0.0563,
足立 (Adachi),2013-01-08,15:01～16:00,0.0591,0.0527,0.0561,
足立 (Adachi),2013-01-08,14:01～15:00,0.0599,0.0518,0.0566,
足立 (Adachi),2013-01-08,13:01～14:00,0.0595,0.0538,0.0563,
足立 (Adachi),2013-01-08,12:01～13:00,0.0600,0.0534,0.0569,
足立 (Adachi),2013-01-08,11:01～12:00,0.0611,0.0535,0.0573,
足立 (Adachi),2013-01-08,10:01～11:00,0.0632,0.0532,0.0575,
足立 (Adachi),2013-01-08,09:01～10:00,0.0612,0.0542,0.0577,
足立 (Adachi),2013-01-08,08:01～09:00,0.0614,0.0540,0.0571,
足立 (Adachi),2013-01-08,07:01～08:00,0.0600,0.0525,0.0564,
足立 (Adachi),2013-01-08,06:01～07:00,0.0589,0.0526,0.0560,
足立 (Adachi),2013-01-08,05:01～06:00,0.0595,0.0530,0.0566,
足立 (Adachi),2013-01-08,04:01～05:00,0.0590,0.0527,0.0565,
足立 (Adachi),2013-01-08,03:01～04:00,0.0591,0.0538,0.0565,
足立 (Adachi),2013-01-08,02:01～03:00,0.0601,0.0533,0.0567,
足立 (Adachi),2013-01-08,01:01～02:00,0.0604,0.0534,0.0573,
足立 (Adachi),2013-01-08,00:01～01:00,0.0613,0.0548,0.0573,
足立 (Adachi),2013-01-07,23:01～24:00,0.0604,0.0529,0.0565,
足立 (Adachi),2013-01-07,22:01～23:00,0.0607,0.0535,0.0568,
足立 (Adachi),2013-01-07,21:01～22:00,0.0596,0.0528,0.0561,
足立 (Adachi),2013-01-07,20:01～21:00,0.0600,0.0529,0.0560,
足立 (Adachi),2013-01-07,19:01～20:00,0.0591,0.0532,0.0558,
足立 (Adachi),2013-01-07,18:01～19:00,0.0598,0.0524,0.0560,
足立 (Adachi),2013-01-07,17:01～18:00,0.0589,0.0522,0.0556,
足立 (Adachi),2013-01-07,16:01～17:00,0.0595,0.0515,0.0558,
足立 (Adachi),2013-01-07,15:01～16:00,0.0588,0.0527,0.0559,
足立 (Adachi),2013-01-07,14:01～15:00,0.0594,0.0523,0.0560,
足立 (Adachi),2013-01-07,13:01～14:00,0.0600,0.0529,0.0562,
足立 (Adachi),2013-01-07,12:01～13:00,0.0588,0.0525,0.0553,
足立 (Adachi),2013-01-07,11:01～12:00,0.0588,0.0524,0.0555,
足立 (Adachi),2013-01-07,10:01～11:00,0.0592,0.0516,0.0558,
足立 (Adachi),2013-01-07,09:01～10:00,0.0586,0.0526,0.0559,
足立 (Adachi),2013-01-07,08:01～09:00,0.0594,0.0514,0.0555,
足立 (Adachi),2013-01-07,07:01～08:00,0.0598,0.0519,0.0555,
足立 (Adachi),2013-01-07,06:01～07:00,0.0590,0.0519,0.0556,
足立 (Adachi),2013-01-07,05:01～06:00,0.0591,0.0529,0.0561,
足立 (Adachi),2013-01-07,04:01～05:00,0.0601,0.0524,0.0562,
足立 (Adachi),2013-01-07,03:01～04:00,0.0588,0.0530,0.0559,
足立 (Adachi),2013-01-07,02:01～03:00,0.0586,0.0527,0.0558,
足立 (Adachi),2013-01-07,01:01～02:00,0.0586,0.0534,0.0561,
足立 (Adachi),2013-01-07,00:01～01:00,0.0597,0.0522,0.0565,
